Regional Weather Roundup
Issued by NWS

Home | Current Version | Previous Version | Text Only | Print | Product List | Glossary On
Versions: 1 2 3 4 5 6 7 8 9 10 11 12 13 14 15 16 17 18 19 20 21 22 23 24 25 26 27 28 29 30 31 32 33 34 35 36 37 38 39 40 41 42 43 44 45 46 47 48 49 50
000
ASUS44 KJAN 241510
RWRMS

MISSISSIPPI HOURLY WEATHER ROUNDUP
NATIONAL WEATHER SERVICE JACKSON MS
1000 AM CDT FRI MAR 24 2017

NOTE: "FAIR: INDICATES FEW OR NO CLOUDS BELOW 12,000 FEET WITH NO
SIGNIFICANT WEATHER AND/OR OBSTRUCTIONS TO VISIBILITY.

MSZ001>002-007>008-010>013-018>021-025>028-034>036-241600-
NORTHWEST MISSISSIPPI

CITY           SKY/WX    TMP DP  RH WIND       PRES   REMARKS
CLEVELAND      CLOUDY    71  63  74 S17       30.17R
GREENWOOD      CLOUDY    72  61  68 S17       30.18R
GREENVILLE     PTSUNNY   72  60  66 S21       30.15R
OLIVE BRANCH   CLOUDY   N/A N/A N/A SE14G24   30.18R
OXFORD         PTSUNNY   66  57  72 SE14G20   30.22R
WINONA         CLOUDY    69  60  72 S13G24    30.19R
$$

MSZ003>006-009-014>017-022>024-029>033-037>039-241600-
NORTHEAST MISSISSIPPI

CITY           SKY/WX    TMP DP  RH WIND       PRES   REMARKS
COLUMBUS AFB   PTSUNNY   69  56  64 S22G31    30.24R
STARKVILLE     CLOUDY    64  55  72 S13G20    30.25R
TUPELO         CLOUDY    67  55  65 SE16G24   30.23R
$$

MSZ040-058-241600-
CENTRAL MISSISSIPPI

CITY           SKY/WX    TMP DP  RH WIND       PRES   REMARKS
JACKSON INTL   CLOUDY    72  61  68 S23G31    30.17R
JACKSON HAWKNS CLOUDY    72  61  68 SE18G25   30.18R
MADISON        PTSUNNY   70  61  73 SE7       30.18R
MERIDIAN KEY   CLOUDY    69  60  73 SE13G22   30.25S
MERIDIAN NAS   CLOUDY    68  55  63 S15G24    30.26F
RAYMOND        PTSUNNY   73  63  68 S22G28    30.16R
VICKSBURG VKS  PTSUNNY   72  63  73 S14G22    30.14R
$$

MSZ059>079-241600-
SOUTH MISSISSIPPI

CITY           SKY/WX    TMP DP  RH WIND       PRES   REMARKS
BROOKHAVEN     PTSUNNY   73  64  73 SE16G23   30.19R
HATTIESBURG    CLOUDY    72  62  71 SE18G29   30.23R
MCCOMB         PTSUNNY   73  62  68 S18G29    30.17S
NATCHEZ        CLOUDY    72  61  68 S15G21    30.16R
PINE BELT      CLOUDY    72  61  68 SE20G25   30.24R
$$

MSZ080>082-241600-
COASTAL MISSISSIPPI

CITY           SKY/WX    TMP DP  RH WIND       PRES   REMARKS
BAY ST LOUIS   PTSUNNY   72  63  73 MISG      30.22R
BILOXI         PTSUNNY   72  65  79 SE14G25   30.24R
PASCAGOULA     CLOUDY    72  62  71 SE21G29   30.26R
GULFPORT       CLOUDY    73  66  78 SE21G30   30.23S
$$

LAZ007>009-015>016-023>026-241600-
NORTHEAST LOUISIANA

CITY           SKY/WX    TMP DP  RH WIND       PRES   REMARKS
BASTROP        CLOUDY    71  64  77 S10G18    30.15S
TALLULAH/VBURG CLOUDY    72  61  68 S13G22    30.17R
VIDALIA        CLOUDY    72  63  72 SE12      30.15R
$$



USA.gov is the U.S. government's official web portal to all federal, state and local government web resources and services.